Location: Ostrava
(49.8330°N, 18.2830°E)
Time: 04:11:35
(UTC+02:00)

ISS - Pass Details

Date: 23 May 2021
Orbit: 417 x 422 km, 51.6° (Epoch: 13 June)

Event Time Altitude Azimuth Distance (km) Brightness Sun altitude
Rises 23:47:24 0° 288° (WNW) 2,369 0.5 -18.3°
Reaches altitude 10° 23:49:33 10° 282° (WNW) 1,504 -0.6 -18.4°
Enters shadow 23:52:20 42° 235° (SW) 609 -3.2 -18.5°
